Lapse_Rate
8.8 8.8 8.9 9.3 8.9 9.4 9.6 9.7 9.5 8.8 8.8 8.6 8.6 8.6 9.0 9.0 8.9 8.8 8.6 8.4 8.2 7.9 7.6 7.4 7.3 7.1 7.2 7.1 7.0 6.7 6.5 6.3 6.2 6.5 6.2 6.0 5.8 6.4 6.6 6.3 6.0 5.9 6.0 6.1
8.9 9.2 9.0 9.0 9.3 9.5 9.4 9.3 8.9 9.1 9.1 8.8 8.8 9.0 9.0 9.0 8.9 8.6 8.4 8.3 8.1 7.8 7.6 7.4 7.4 7.4 7.2 7.2 7.1 6.9 6.7 6.6 6.5 6.1 6.1 6.2 6.3 6.3 6.2 5.8 5.7 6.1 6.6 6.8
8.8 9.1 9.1 9.2 9.4 9.3 9.3 9.3 9.1 9.0 9.0 8.7 8.6 8.7 8.9 8.9 8.8 8.7 8.5 8.3 8.2 8.1 7.8 7.7 7.7 7.6 7.7 7.5 7.2 6.9 6.9 6.7 6.4 6.1 6.1 5.9 5.7 5.8 5.7 5.8 6.1 6.4 6.5 6.4
9.0 9.2 9.1 9.2 9.2 9.2 9.1 9.1 8.8 9.2 8.9 9.5 8.9 9.6 8.6 8.7 8.5 8.5 8.4 8.3 8.2 8.0 8.0 7.9 7.8 7.6 7.5 7.3 7.2 7.0 6.7 6.3 6.0 5.7 5.5 5.5 5.6 5.5 5.6 5.8 6.0 6.2 6.2 6.1
9.0 8.9 9.0 8.8 9.1 9.0 8.7 8.9 8.5 8.6 8.9 8.9 8.6 9.0 8.4 8.4 8.3 8.5 8.5 8.3 8.1 8.0 7.9 7.7 7.6 7.4 7.2 6.9 6.6 6.4 6.0 6.0 5.9 5.9 5.9 5.7 5.4 5.3 5.5 5.8 5.9 6.0 5.8 5.8
9.2 9.0 9.0 9.0 9.0 9.0 9.0 8.7 8.5 8.5 8.5 8.9 8.8 8.4 9.5 7.8 7.8 8.3 8.2 8.0 7.9 7.8 7.7 7.4 7.2 6.9 6.6 6.5 6.4 6.2 6.1 6.0 5.9 5.7 5.4 5.2 5.3 5.4 5.6 5.8 5.8 5.8 5.7 5.6
8.6 8.7 8.8 8.8 8.7 8.6 8.6 8.5 9.1 8.7 8.7 8.8 7.6 7.9 8.5 7.9 8.0 7.8 7.7 7.7 7.6 7.4 7.2 7.0 6.7 6.5 6.3 6.2 6.0 5.9 5.8 5.6 5.5 5.4 5.4 5.2 5.4 5.6 5.6 5.5 5.6 5.7 5.7 5.8
9.0 8.7 8.5 8.7 8.5 8.6 8.2 8.5 8.9 8.5 8.5 8.8 7.3 8.1 8.3 7.8 7.6 7.4 7.2 7.0 7.1 6.9 6.7 6.6 6.5 6.4 6.2 6.0 6.0 5.9 5.8 5.6 5.5 5.4 5.5 5.6 5.6 5.4 5.4 5.5 5.7 5.8 5.8 5.6
8.9 8.6 8.4 8.4 8.1 8.1 8.0 8.2 8.0 7.8 7.3 7.3 8.3 7.8 7.7 7.5 7.4 7.3 6.9 6.8 6.7 6.7 6.6 6.5 6.4 6.2 6.2 6.2 6.1 6.0 5.8 5.6 5.4 5.5 5.5 5.6 5.4 5.5 5.9 5.6 5.6 5.7 5.6 5.3
8.6 8.1 7.9 8.0 7.9 7.8 7.8 7.9 7.8 7.6 7.6 7.9 8.5 8.0 8.3 7.3 7.3 7.3 6.9 6.9 6.6 6.4 6.4 6.4 6.4 6.3 6.3 6.3 6.1 5.9 5.8 5.6 5.7 5.5 5.6 5.6 5.7 5.8 5.6 5.6 5.6 5.6 5.4 5.2
8.3 8.4 7.6 7.7 7.6 7.9 7.6 7.5 7.6 7.5 7.3 8.0 8.1 8.8 7.8 7.5 7.4 7.2 7.0 6.9 6.6 6.5 6.4 6.4 6.4 6.3 6.4 6.3 6.2 5.9 5.6 5.5 5.5 5.6 5.8 5.9 5.8 5.6 5.7 5.6 5.4 5.4 5.2 5.1
8.1 8.1 7.7 7.7 7.7 7.7 7.6 7.5 7.4 7.8 7.5 6.6 6.8 8.2 7.9 7.8 7.6 7.4 7.1 6.8 6.6 6.5 6.4 6.4 6.3 6.4 6.4 6.3 6.0 5.8 5.5 5.6 5.7 5.8 6.1 5.8 5.6 5.6 5.6 5.4 5.2 5.1 5.2 5.1
7.9 7.7 7.7 7.5 7.2 7.4 7.2 7.4 7.5 7.6 7.4 7.0 7.1 8.4 7.9 7.9 7.7 7.5 7.1 6.9 6.7 6.7 6.6 6.5 6.6 6.5 6.5 6.2 5.9 5.8 5.7 5.6 5.7 6.0 5.7 5.5 5.5 5.6 5.4 5.3 5.3 5.3 5.1 4.9
7.7 7.7 7.9 8.3 8.3 8.0 7.3 7.7 7.7 7.3 7.1 7.6 7.4 8.3 7.8 7.7 7.6 7.5 7.3 7.0 6.9 6.7 6.6 6.6 6.6 6.5 6.5 6.2 5.9 5.9 5.8 5.8 5.8 5.7 5.4 5.4 5.5 5.5 5.4 5.4 5.3 5.2 4.9 4.7
7.4 7.4 7.7 7.8 7.8 7.9 7.7 7.5 7.5 7.2 7.5 7.2 8.0 7.7 8.1 7.5 7.4 7.4 7.3 7.2 6.9 6.7 6.6 6.6 6.6 6.6 6.5 6.2 6.0 6.0 5.9 5.8 5.8 5.5 5.4 5.5 5.6 5.5 5.4 5.3 5.2 5.0 4.8 4.7
7.4 7.2 7.4 7.4 7.5 7.4 7.4 7.4 7.3 7.1 7.3 7.5 7.5 7.8 7.8 7.8 7.6 7.5 7.4 7.1 6.9 6.6 6.6 6.6 6.6 6.6 6.4 6.1 6.0 6.0 5.9 5.9 5.6 5.4 5.5 5.5 5.6 5.5 5.4 5.3 5.1 4.9 4.7 4.8
7.3 7.3 7.3 6.9 7.3 7.0 6.7 7.6 7.7 7.9 8.0 7.9 7.3 7.9 7.4 7.5 7.3 7.2 7.1 7.0 6.9 6.9 6.9 6.9 6.6 6.5 6.2 6.0 6.0 6.1 6.1 5.8 5.4 5.4 5.5 5.5 5.5 5.5 5.3 5.1 5.0 4.9 4.9 4.8
7.2 7.1 6.9 6.8 6.8 6.2 7.4 7.7 7.8 7.7 7.9 7.8 7.9 7.9 7.6 7.3 7.0 6.9 6.9 6.9 7.0 7.1 7.2 6.9 6.6 6.3 6.1 6.1 6.0 6.1 5.9 5.6 5.2 5.2 5.4 5.5 5.5 5.4 5.3 5.2 5.0 4.9 4.9 4.6
7.0 6.9 6.9 6.7 6.4 6.9 7.5 7.5 7.6 7.5 7.6 7.6 7.4 7.4 7.3 7.2 6.9 7.0 6.9 7.0 7.0 7.0 7.0 6.8 6.3 6.0 6.1 6.2 6.1 6.0 5.7 5.1 4.6 5.2 5.5 5.5 5.4 5.3 5.3 5.1 5.0 4.7 4.8 4.6
6.8 6.7 6.6 6.4 6.3 6.4 7.3 7.4 7.4 7.1 6.8 6.7 6.8 6.9 7.0 7.1 6.9 6.9 6.9 7.0 7.0 6.8 6.7 6.6 6.2 6.1 6.2 6.1 6.2 5.7 5.1 4.2 5.0 5.4 5.4 5.3 5.2 5.2 5.2 5.1 4.8 4.6 4.6 4.7
6.7 6.6 6.5 6.4 6.3 6.6 7.0 6.8 6.6 6.4 6.4 6.3 6.5 6.5 6.7 6.8 6.6 6.8 6.8 6.7 6.5 6.4 6.3 6.1 6.2 6.1 6.1 6.1 5.6 5.4 4.6 4.9 5.1 5.0 5.2 5.2 5.2 5.2 5.2 4.9 4.7 4.7 4.8 5.0
6.8 6.8 6.7 6.5 6.3 6.3 6.9 6.5 6.2 6.0 6.1 6.3 6.2 6.2 6.4 6.5 6.6 6.5 6.4 6.3 6.2 6.2 6.3 6.1 6.3 6.3 6.0 5.6 5.5 4.6 4.7 4.8 4.6 5.2 5.3 5.2 5.3 5.2 4.8 5.0 4.8 4.9 5.0 5.3
6.4 6.7 6.7 6.7 6.7 6.8 6.3 5.9 5.7 5.9 6.2 6.3 6.4 6.3 6.3 6.3 6.4 6.4 6.3 6.3 6.2 6.2 6.3 6.3 6.3 6.1 5.9 4.8 4.0 4.3 4.3 4.6 5.2 5.2 5.2 5.3 5.3 4.9 5.0 5.1 5.0 5.1 5.3 5.9
6.5 6.5 6.5 6.4 6.5 6.2 5.9 6.0 6.0 6.0 6.1 6.2 6.4 6.6 6.6 6.6 6.6 6.6 6.5 6.4 6.2 6.0 6.1 6.1 6.1 5.8 4.5 3.9 4.2 4.1 4.6 5.0 5.1 5.2 5.2 5.2 5.0 5.0 5.1 5.3 5.1 5.4 5.9 6.2
6.4 6.3 6.2 6.1 6.3 6.1 6.4 6.2 6.1 6.2 6.2 6.3 6.4 6.5 6.5 6.4 6.4 6.3 6.2 6.2 6.0 6.1 6.1 5.7 5.7 4.6 3.8 3.9 3.9 4.3 4.7 5.1 5.1 5.0 5.2 5.2 5.2 5.4 5.3 5.0 5.3 5.9 6.3 6.4
6.4 6.0 5.8 6.0 6.3 6.2 6.2 6.2 6.3 6.3 6.4 6.5 6.4 6.3 6.3 6.2 6.1 6.0 5.8 5.8 5.8 6.0 5.9 5.6 4.5 4.4 4.3 4.0 4.2 4.6 5.0 4.9 5.0 5.4 5.3 5.3 5.4 5.3 5.1 5.4 5.9 6.4 6.5 6.7
Wind_Speed
5 6 7 10 5 2 6 8 11 8 4 7 6 6 4 4 9 11 11 11 11 10 7 7 6 10 12 13 15 16 16 10 7 5 6 6 5 5 5 6 6 5 6 6
6 6 4 4 5 5 6 8 7 5 4 4 9 7 6 5 8 9 11 11 11 9 9 9 9 11 12 14 14 14 14 11 7 7 6 5 6 4 4 6 6 5 5 4
13 6 4 6 8 9 4 5 11 8 8 2 10 7 8 5 6 6 7 6 7 8 9 10 11 12 12 13 13 13 11 11 8 8 6 5 5 6 5 5 4 5 4 2
4 2 4 7 7 2 6 1 7 14 12 7 9 7 9 6 6 7 8 9 9 10 11 12 14 14 14 12 11 11 11 11 9 7 5 4 1 2 2 1 3 4 2 2
3 4 5 5 4 2 4 5 6 5 5 5 10 8 8 8 9 11 11 12 13 13 13 14 14 13 12 11 11 10 10 9 8 5 3 4 3 5 4 4 2 2 3 5
3 2 3 4 6 2 11 8 6 4 3 7 3 6 5 9 12 15 15 14 14 13 14 14 13 12 11 10 9 10 11 8 7 6 7 6 7 5 2 1 3 4 5 7
6 3 4 2 9 6 6 9 3 4 4 6 2 6 12 1 2 16 19 16 15 15 15 15 14 13 11 10 9 9 10 10 10 9 8 6 5 4 2 4 4 7 7 8
9 6 4 1 3 3 6 5 4 4 4 2 3 6 1 1 3 11 17 17 17 17 15 15 14 12 11 11 10 10 11 10 9 8 7 6 3 2 2 3 5 6 7 8
6 4 4 3 2 4 6 5 3 2 1 3 5 4 8 2 7 11 17 17 18 18 16 15 13 11 10 10 10 9 8 8 7 6 4 4 1 2 3 4 5 5 6 8
4 4 3 5 3 7 3 8 3 3 3 4 3 5 2 6 10 13 18 19 18 17 16 14 12 11 10 10 9 7 7 8 7 5 3 2 3 2 2 3 4 5 7 11
5 3 5 3 5 5 4 4 1 0 2 2 3 1 3 2 8 14 18 19 18 17 15 13 11 11 11 10 9 9 8 7 7 5 4 4 3 1 2 3 5 6 10 13
2 2 4 5 3 2 2 4 7 4 4 1 2 3 3 1 3 10 14 16 16 16 14 13 13 13 12 11 10 9 8 8 7 6 6 4 2 2 3 4 5 8 10 14
6 4 4 5 4 4 7 8 5 4 1 6 3 2 3 3 5 8 12 15 13 14 14 14 14 14 12 11 10 9 8 7 7 7 5 3 3 5 4 5 6 9 10 11
3 3 6 8 1 1 6 11 11 10 4 4 9 9 7 7 7 7 11 14 16 16 16 16 15 14 13 11 11 10 9 9 8 5 3 4 5 5 5 5 8 10 10 11
3 6 4 1 1 3 4 7 13 16 13 7 8 11 9 5 8 8 9 12 15 16 17 17 16 14 13 12 11 10 8 8 6 3 4 5 5 5 5 6 9 9 9 9
2 3 2 3 2 2 7 9 11 15 15 15 18 19 15 9 7 7 10 13 16 17 17 17 16 15 14 13 11 8 10 7 4 4 6 5 5 5 6 8 9 9 9 9
4 5 4 2 2 3 7 15 17 12 12 14 14 16 3 5 8 8 10 13 15 16 17 17 16 14 12 11 10 10 9 5 4 5 5 5 4 6 7 8 9 9 9 8
5 5 1 1 2 3 1 1 3 13 16 15 18 13 8 4 2 4 7 11 14 15 16 16 13 11 10 9 9 7 6 5 5 5 5 5 6 7 8 8 9 9 8 9
1 4 3 2 4 6 11 3 3 4 6 5 12 12 5 4 4 10 9 10 11 13 13 12 10 10 9 10 8 6 5 4 4 6 6 7 7 9 9 9 9 9 7 9
4 3 1 3 3 4 3 3 1 2 5 6 4 5 8 7 4 5 5 8 9 10 11 10 10 10 11 10 6 3 5 4 6 6 7 7 8 10 10 9 9 7 7 8
2 1 3 3 4 6 1 2 3 3 3 7 5 5 9 7 5 2 2 8 10 11 12 13 13 12 11 7 5 6 4 6 6 5 6 8 9 10 10 9 9 8 8 6
5 6 3 3 3 4 6 6 3 4 4 6 6 5 9 6 5 3 3 10 12 14 14 12 11 9 4 6 5 4 4 3 4 6 9 10 9 8 7 9 9 9 8 7
3 3 1 6 1 3 7 6 4 5 7 8 7 6 8 10 7 5 6 10 11 13 12 9 9 8 9 5 2 3 2 2 5 8 9 9 8 8 8 9 9 9 7 6
4 4 3 1 1 6 7 8 10 9 11 12 11 10 10 12 7 7 10 11 12 12 10 9 7 6 4 3 3 3 3 5 7 9 9 8 8 8 9 7 7 9 7 7
2 7 4 4 10 6 5 3 5 9 9 9 8 7 9 8 6 9 11 11 10 9 6 3 5 3 2 1 3 3 5 6 7 8 8 8 6 8 8 8 8 7 8 6
2 2 2 3 7 5 7 10 10 10 10 11 9 5 5 1 7 10 10 9 8 6 5 3 1 1 2 3 5 5 5 6 7 7 6 6 7 7 7 8 8 9 10 5
Wind_Direction
196 215 196 201 210 305 176 178 150 113 103 147 190 144 92 163 186 183 185 186 181 182 158 140 150 163 158 155 161 166 155 153 151 139 174 170 170 138 150 156 131 129 114 107
199 173 74 123 140 155 168 161 132 117 142 225 174 137 121 161 180 198 191 190 186 168 163 149 165 159 162 163 167 167 169 180 184 179 166 164 150 163 133 139 132 132 124 99
232 103 157 159 134 139 120 195 169 158 150 137 179 180 179 146 174 183 199 191 182 179 163 157 160 162 162 169 168 174 177 178 163 150 144 138 137 150 165 155 158 115 103 89
84 66 154 134 117 266 156 100 162 147 183 195 207 225 177 172 171 193 176 178 161 157 154 154 151 155 159 159 165 164 159 156 151 171 163 195 248 214 67 152 127 150 173 214
102 141 133 130 74 224 105 163 156 169 199 214 195 253 118 172 194 180 166 152 155 153 152 150 151 149 154 158 163 158 150 151 144 138 154 170 136 117 131 138 164 233 241 290
99 64 25 76 71 209 135 148 133 169 224 244 245 264 215 184 211 176 166 164 162 160 157 153 148 149 143 135 137 144 147 138 133 129 130 128 130 128 132 65 321 322 316 312
155 97 105 201 122 148 221 205 215 229 222 254 77 254 261 50 174 181 175 172 172 167 166 165 164 165 153 152 152 153 147 135 134 132 127 116 106 83 47 345 339 323 314 311
180 171 190 103 285 215 195 256 232 255 227 256 185 239 110 114 226 190 179 174 171 175 175 174 171 168 166 160 156 153 143 140 135 128 120 108 89 44 342 345 328 316 320 321
181 127 130 42 185 269 147 211 39 126 70 260 245 215 216 210 190 191 182 177 180 184 181 179 176 177 165 159 148 142 141 125 117 120 128 112 94 37 19 354 328 328 319 325
155 143 176 148 201 67 303 129 180 213 233 247 199 266 275 180 187 190 189 190 189 189 186 182 180 174 167 153 137 133 125 127 133 145 136 133 116 94 17 318 325 331 327 322
167 238 151 205 216 193 151 186 61 360 289 284 299 102 68 33 191 196 199 196 195 194 190 186 181 172 162 156 146 146 143 147 158 156 145 148 150 189 296 313 331 337 326 322
120 129 174 197 103 319 282 218 205 239 181 226 313 296 147 120 213 205 206 203 203 199 192 185 179 171 166 165 162 153 161 172 160 164 166 178 217 265 293 315 322 324 320 318
173 196 170 168 176 190 226 197 197 119 118 211 189 252 168 197 218 207 214 200 201 198 189 183 179 180 174 170 168 168 176 171 179 174 190 220 269 276 289 299 312 318 319 315
196 196 241 240 43 194 197 198 196 203 202 209 238 274 202 221 222 218 212 201 196 194 185 185 186 184 179 177 176 178 174 189 181 190 239 292 281 274 277 298 309 315 315 307
233 236 216 198 102 223 246 219 203 215 229 226 269 254 277 254 239 235 216 205 200 194 190 191 190 185 181 181 182 186 169 186 189 217 274 289 275 259 271 291 308 312 307 304
164 205 187 225 217 275 262 244 234 233 245 253 263 268 286 262 252 227 205 202 206 204 200 195 195 188 187 185 187 163 185 184 192 243 264 275 257 257 280 304 305 300 301 301
168 156 163 238 351 279 281 241 227 226 229 242 250 261 249 204 220 224 215 213 215 210 203 198 195 190 191 181 179 178 177 167 214 250 264 249 238 267 285 294 294 296 301 296
138 128 75 128 223 222 341 163 272 245 255 250 260 267 271 267 233 254 242 225 222 214 204 200 194 185 179 168 173 157 170 203 236 254 248 245 255 271 282 284 290 294 298 289
20 143 124 177 219 316 279 189 214 205 290 325 269 275 238 226 261 241 224 228 229 214 204 198 181 175 157 157 161 175 204 239 242 257 258 258 265 277 280 282 296 298 299 282
78 59 235 149 218 247 49 66 198 228 280 15 302 275 203 199 243 320 179 203 203 195 186 168 149 151 158 149 153 202 236 243 263 265 270 276 281 282 284 283 283 297 285 282
123 55 210 176 242 281 293 234 159 243 17 351 302 231 194 205 268 39 150 175 183 172 164 152 152 151 141 122 185 217 237 253 270 267 281 283 285 289 284 276 280 288 283 279
180 163 180 141 205 270 157 144 238 11 336 331 316 265 230 258 343 318 174 164 163 160 148 143 134 128 121 197 194 241 264 310 278 277 280 285 287 289 275 270 278 283 270 266
222 224 229 215 241 97 195 292 322 322 306 308 295 296 250 260 259 214 179 165 155 150 135 126 122 145 179 182 210 267 300 267 275 282 284 289 280 278 274 278 287 283 269 260
215 181 230 244 191 248 252 268 283 282 278 291 290 280 271 264 248 198 165 154 148 136 126 127 175 174 185 174 217 258 260 281 282 286 290 286 279 288 292 289 281 274 267 262
28 167 205 251 284 290 260 292 316 315 313 302 292 298 294 284 236 179 155 142 130 115 99 142 163 173 201 239 266 255 270 282 285 288 288 286 287 287 299 290 278 271 260 261
200 6 227 266 4 316 315 345 341 323 332 335 327 339 3 15 127 126 113 96 92 97 136 143 88 251 262 262 265 277 289 282 287 287 284 297 297 303 295 289 291 224 240 234